Flag for U.S.A. Weather past 2 weeks in Oklahoma City, Oklahoma, U.S.A.

Now
73 °F

Fog.


Feels Like: 71 °F
Forecast: 75 / 97 °F
Wind: 3 mph from South

Location: Will Rogers World Airport

Current Time: Jul 23, 2014 at 7:18:12 AM

Latest Report: Jul 23, 2014 at 5:52 AM


Visibility: 5 mi

Pressure: 30.07 "Hg

Humidity: 90%

Dew point: 70 °F

Location of Oklahoma CityLocation

Historic Weather in Oklahoma City — Graph

°F

Oklahoma City temperature yesterday

Maximum temperature yesterday: 93 °F (at 6:52 PM)
Minimum temperature yesterday: 74 °F (at 6:52 AM)
Average temperature yesterday: 81 °F

Past Weeks' High & Low Weather Summary

 TemperatureHumidityPressure
High99 °F (Jul 13, 3:52 PM)96% (Jul 9, 8:52 AM)30.11 "Hg (Jul 9, 8:52 AM)
Low62 °F (Jul 16, 11:52 AM)25% (Jul 13, 4:52 PM)29.85 "Hg (Jul 8, 5:52 AM)
Average77 °F67%29.99 "Hg
* Reported Jul 8 5:52 AM — Jul 23 5:52 AM, Oklahoma City, Weather by CustomWeather, © 2014

Note: Actual official high and low records may vary slightly from our data, if they occured in-between our weather recording intervals... More about our weather records

Advertising

Oklahoma City weather history for previous 24 hours

 ConditionsComfort  
Time TempWeatherWind HumidityBarometerVisibility
5:52 AM
Jul 23
73 °FFog.3 mph90%30.07 "Hg5 mi
4:52 AM74 °FFog.6 mph91%30.06 "Hg6 mi
3:52 AM76 °FFog.3 mph91%30.06 "Hg6 mi
2:52 AM75 °FFog.No wind88%30.06 "Hg6 mi
12:52 AM77 °FPassing clouds.5 mph88%30.05 "Hg7 mi
11:52 PM
Jul 22
78 °FPassing clouds.6 mph84%30.04 "Hg8 mi
10:52 PM81 °FPassing clouds.5 mph79%30.04 "Hg9 mi
9:52 PM84 °FPassing clouds.7 mph72%30.03 "Hg10 mi
8:52 PM86 °FPassing clouds.8 mph65%30.03 "Hg10 mi
7:52 PM90 °FPassing clouds.8 mph57%30.01 "Hg10 mi
6:52 PM93 °FPassing clouds.9 mph52%30.00 "Hg10 mi
11:52 AM88 °FPartly sunny.7 mph65%30.05 "Hg10 mi
10:52 AM86 °FPartly sunny.9 mph67%30.06 "Hg10 mi
9:52 AM83 °FPartly sunny.9 mph72%30.06 "Hg9 mi
8:52 AM79 °FPartly sunny.14 mph79%30.06 "Hg7 mi
7:52 AM76 °FFog.7 mph88%30.05 "Hg4 mi
Weather by CustomWeather, © 2014

See weather overviewHow to use our weather pages